Location: Smoky Mountain Stargaze
(35.4252°N, 83.3329°W)
Time: 13:40:45
(UTC-05:00)

Amateur Radio Satellites - All Passes

Search period start: 21 December 2014 13:10
Search period end: 22 December 2014 13:10
Location: Smoky Mountain Stargaze, 35.4252°N, 83.3329°W

Satellite Date Start Highest point End Downlink Frequencies (MHz)
Time Altitude Azimuth
ITAMSAT 1 21 Dec 13:15:51 13:20:11 28° 68° (ENE) 13:24:31 435.822/435.867
Gurwin Techsat 1B 21 Dec 13:16:54 13:20:17 17° 65° (ENE) 13:23:39 435.225
M-CUBED/EXP-1 PRIME 21 Dec 13:47:29 13:49:50 15° 96° (E) 13:52:04 437.505
BEESAT 3 21 Dec 13:56:58 14:00:43 35° 305° (NW) 14:04:33 437.485
SWISSCUBE 21 Dec 14:05:50 14:10:37 90° 102° (ESE) 14:15:22 437.505
ITUPSAT 1 21 Dec 14:06:40 14:11:27 83° 103° (ESE) 14:16:12 437.325
AIST 2 21 Dec 14:08:14 14:12:26 69° 300° (WNW) 14:16:43 435.215
SRMSAT 21 Dec 14:09:14 14:12:47 16° 174° (S) 14:16:20 437.500
HORYU 2 21 Dec 14:11:14 14:14:23 19° 67° (ENE) 14:17:33 437.375
RS-15 21 Dec 14:28:59 14:37:38 26° 322° (NW) 14:46:25 29.354- 29.394
BEESAT 21 Dec 14:30:48 14:35:26 53° 287° (WNW) 14:40:02 436.000
ISS 21 Dec 14:38:22 14:40:43 18° 330° (NNW) 14:43:03 145.825
Oscar 19 21 Dec 14:38:59 14:42:03 16° 267° (W) 14:45:09 437.125/150
BEESAT 2 21 Dec 14:39:07 14:41:44 16° 311° (NW) 14:44:23 435.950
PCSat 21 Dec 14:41:30 14:46:27 36° 303° (WNW) 14:51:27 145.827
AO-7 21 Dec 14:49:03 14:56:16 35° 62° (ENE) 15:03:31 29.400- 29.500
JUGNU 21 Dec 14:52:32 14:56:01 16° 187° (S) 14:59:29 437.505
AUBIESAT-1 21 Dec 14:54:32 14:58:47 87° 288° (WNW) 15:02:38 437.475
Gurwin Techsat 1B 21 Dec 14:54:36 14:59:46 53° 260° (W) 15:04:57 435.225
ITAMSAT 1 21 Dec 14:55:01 14:59:32 30° 263° (W) 15:04:04 435.822/435.867
STARS 21 Dec 15:14:09 15:18:33 59° 101° (E) 15:22:56 437.465
KKS-1 21 Dec 15:19:48 15:24:16 76° 284° (WNW) 15:28:44 437.445
M-CUBED/EXP-1 PRIME 21 Dec 15:21:07 15:25:03 36° 293° (WNW) 15:28:40 437.505
HORYU 2 21 Dec 15:46:44 15:50:46 34° 262° (W) 15:54:51 437.375
SRMSAT 21 Dec 15:57:35 16:01:14 17° 185° (S) 16:04:51 437.500
GONETS M04 21 Dec 16:01:38 16:08:51 28° 71° (ENE) 16:15:57
JAS-2 21 Dec 16:24:26 16:31:53 55° 72° (ENE) 16:38:44 435.910
MOZHAYETS 4 21 Dec 16:36:43 16:40:09 20° 94° (E) 16:43:32
AO-7 21 Dec 16:40:46 16:48:43 49° 258° (WSW) 16:56:45 29.400- 29.500
AIST 1 21 Dec 16:41:05 16:45:27 74° 95° (E) 16:49:48
RS-15 21 Dec 16:52:12 16:55:55 12° 358° (N) 16:59:41 29.354- 29.394
CUTE-I 21 Dec 16:52:40 16:55:51 16° 64° (ENE) 16:59:02 437.470
STARS 21 Dec 16:53:05 16:54:28 11° 295° (WNW) 16:55:52 437.465
SRMSAT 21 Dec 17:48:16 17:49:37 11° 194° (SSW) 17:50:58 437.500
Cubesat XI-IV 21 Dec 17:57:07 18:02:24 70° 74° (ENE) 18:07:42 437.490
GONETS M04 21 Dec 17:57:35 18:06:02 57° 270° (W) 18:14:26
CUBESAT XI-V 21 Dec 18:04:23 18:05:47 11° 91° (E) 18:07:11 437.345
JAS-2 21 Dec 18:10:48 18:17:00 26° 265° (W) 18:22:52 435.910
MOZHAYETS 4 21 Dec 18:13:17 18:17:23 32° 289° (WNW) 18:21:27
MaSat-1 21 Dec 18:22:53 18:25:11 36° 65° (ENE) 18:27:37 437.345
CUTE-I 21 Dec 18:30:11 18:35:24 57° 259° (W) 18:40:38 437.470
PRISM 21 Dec 18:33:59 18:38:03 55° 101° (E) 18:42:05 437.425
STRAND 1 21 Dec 18:37:43 18:41:49 24° 96° (E) 18:45:55 437.568
HO-68 21 Dec 19:05:31 19:09:56 18° 58° (ENE) 19:14:20 435.675
RS-15 21 Dec 19:06:05 19:14:36 24° 35° (NE) 19:23:20 29.354- 29.394
DANDE 21 Dec 19:27:04 19:32:26 19° 69° (ENE) 19:38:06 436.750
ISS 21 Dec 19:31:57 19:34:20 18° 30° (NNE) 19:36:42 145.825
CUBESAT XI-V 21 Dec 19:39:01 19:43:32 57° 285° (WNW) 19:48:01 437.345
Cubesat XI-IV 21 Dec 19:41:02 19:42:55 12° 269° (W) 19:44:49 437.490
SO-50 21 Dec 19:41:18 19:42:32 11° 106° (ESE) 19:43:47 436.795
BRITE-PL 21 Dec 19:47:17 19:50:02 17° 69° (ENE) 19:52:47 437.365/2234.400
AAUSAT CUBESAT 2 21 Dec 19:59:45 20:01:57 14° 67° (ENE) 20:04:11 437.432
GOMX 1 21 Dec 20:07:39 20:10:44 21° 69° (ENE) 20:13:50 467.674
CUSAT 1 21 Dec 20:11:26 20:19:02 45° 76° (ENE) 20:27:03 437.405
PRISM 21 Dec 20:12:14 20:13:03 11° 295° (WNW) 20:13:53 437.425
CANX-2 21 Dec 20:15:32 20:19:28 38° 73° (ENE) 20:23:28 2200.000
STRAND 1 21 Dec 20:16:29 20:21:00 33° 290° (WNW) 20:25:30 437.568
DOVE 4 21 Dec 20:27:15 20:30:38 25° 70° (ENE) 20:34:03 437.250
COMPASS 1 21 Dec 20:33:57 20:37:54 40° 73° (ENE) 20:41:53 437.405
SEEDS 21 Dec 20:40:53 20:45:03 60° 75° (ENE) 20:49:16 437.485
CINEMA 3 21 Dec 20:44:01 20:47:16 22° 69° (ENE) 20:50:34 145.822/145.860
DELFI C3 21 Dec 20:44:32 20:47:21 18° 69° (ENE) 20:50:12 145.870
CUTE 1.7 + AOD 2 21 Dec 20:45:50 20:50:05 83° 77° (ENE) 20:54:23 437.475
HO-68 21 Dec 20:49:34 20:56:45 81° 255° (WSW) 21:03:58 435.675
FUNcube-1 21 Dec 20:53:11 20:54:44 12° 65° (ENE) 20:56:19 145.935
UWE-3 21 Dec 20:55:55 20:58:27 16° 67° (ENE) 21:01:01 435.000/436.395/437.385
DX 1 21 Dec 21:06:24 21:10:16 32° 71° (ENE) 21:14:09 434.975-435.025
ISS 21 Dec 21:07:55 21:11:03 44° 226° (SW) 21:14:10 145.825
DANDE 21 Dec 21:08:30 21:16:33 88° 263° (W) 21:25:18 436.750
AISAT 21 Dec 21:15:58 21:18:07 14° 66° (ENE) 21:20:17 437.250
RS-15 21 Dec 21:17:39 21:29:02 79° 60° (ENE) 21:40:56 29.354- 29.394
HUMSAT D 21 Dec 21:17:51 21:19:49 13° 66° (ENE) 21:21:46 437.325/437.525
SO-50 21 Dec 21:17:58 21:22:25 63° 302° (WNW) 21:27:03 436.795
BEESAT 2 21 Dec 21:23:40 21:25:44 13° 47° (NE) 21:27:47 435.950
BRITE-PL 21 Dec 21:24:41 21:28:22 29° 263° (W) 21:32:00 437.365/2234.400
Oscar 11 21 Dec 21:26:16 21:30:34 74° 76° (ENE) 21:34:55 145.826/435.025
AAUSAT CUBESAT 2 21 Dec 21:33:15 21:37:13 41° 261° (W) 21:41:14 437.432
UKube-1 21 Dec 21:35:37 21:39:55 71° 75° (ENE) 21:44:14 .
GOMX 1 21 Dec 21:45:19 21:48:44 25° 264° (W) 21:52:10 467.674
PCSat 21 Dec 21:50:37 21:53:11 13° 47° (NE) 21:55:45 145.827
CANX-2 21 Dec 21:53:07 21:55:32 15° 267° (W) 21:57:58 2200.000
CUSAT 1 21 Dec 21:54:40 22:01:58 39° 270° (W) 22:09:36 437.405
CUBEBUG 2 21 Dec 21:54:53 21:59:02 85° 258° (WSW) 22:03:19 437.445
ZACube-1 21 Dec 22:00:02 22:04:11 78° 77° (ENE) 22:08:27 437.345
DOVE 4 21 Dec 22:05:16 22:08:22 20° 265° (W) 22:11:31 437.250
VELOX 1 21 Dec 22:06:05 22:10:20 49° 74° (ENE) 22:14:36 145.980
TIGRISAT 21 Dec 22:06:23 22:08:53 14° 92° (E) 22:11:22 435.000
COMPASS 1 21 Dec 22:11:39 22:13:46 14° 267° (W) 22:15:55 437.405
ESTCUBE 1 21 Dec 22:13:56 22:17:31 23° 69° (ENE) 22:21:05 437.505/2401.250
DELFI C3 21 Dec 22:18:47 22:22:23 29° 263° (W) 22:26:01 145.870
50 SAT 21 Dec 22:19:05 22:23:00 56° 75° (ENE) 22:26:59 437.505
BEESAT 3 21 Dec 22:19:10 22:23:15 53° 58° (ENE) 22:27:16 437.485
CINEMA 3 21 Dec 22:21:01 22:24:22 24° 265° (W) 22:27:47 145.822/145.860
DUCHIFAT 1 21 Dec 22:21:36 22:22:52 11° 92° (E) 22:24:07 145.980
FUNcube-1 21 Dec 22:26:34 22:30:36 49° 261° (W) 22:34:43 145.935
UWE-3 21 Dec 22:30:50 22:34:40 36° 262° (W) 22:38:35 435.000/436.395/437.385
AIST 2 21 Dec 22:33:24 22:37:14 31° 54° (NE) 22:41:00 435.215
QB50P2 21 Dec 22:34:40 22:37:31 17° 94° (E) 22:40:22 145.880/145.840
UNISAT 6 21 Dec 22:34:49 22:38:59 30° 97° (E) 22:43:08 437.425
POLYITAN 1 21 Dec 22:43:32 22:46:54 22° 96° (E) 22:50:16 437.675
DX 1 21 Dec 22:43:33 22:46:32 18° 265° (W) 22:49:32 434.975-435.025
HO-68 21 Dec 22:43:38 22:45:19 11° 270° (W) 22:47:01 435.675
NANOSAT C BR1 21 Dec 22:44:36 22:47:58 22° 96° (E) 22:51:18 145.865
AISAT 21 Dec 22:50:02 22:54:18 48° 260° (W) 22:58:35 437.250
CUBEBUG 1 21 Dec 22:51:14 22:55:31 57° 75° (ENE) 22:59:47 437.445
HUMSAT D 21 Dec 22:51:16 22:55:11 43° 261° (W) 22:59:10 437.325/437.525
DANDE 21 Dec 22:54:24 22:59:12 17° 276° (W) 23:04:13 436.750
QB50P1 21 Dec 22:58:50 23:02:42 33° 98° (E) 23:06:33 145.935-145.965
BEESAT 2 21 Dec 23:00:14 23:04:20 57° 244° (WSW) 23:08:22 435.950
YUBILEINY 21 Dec 23:04:15 23:11:22 29° 84° (E) 23:18:26 435.215
ANTELSAT 21 Dec 23:06:27 23:11:11 70° 101° (ESE) 23:15:53 437.575/2403.000
POPSAT HIP 1 21 Dec 23:27:23 23:31:39 76° 102° (ESE) 23:35:56 437.405
RS-15 21 Dec 23:31:47 23:40:16 25° 257° (WSW) 23:49:02 29.354- 29.394
PCSat 21 Dec 23:31:52 23:37:19 87° 245° (WSW) 23:42:43 145.827
TIGRISAT 21 Dec 23:41:17 23:45:50 49° 286° (WNW) 23:50:22 435.000
VELOX 1 21 Dec 23:45:20 23:47:09 12° 267° (W) 23:48:58 145.980
TISAT 1 21 Dec 23:46:26 23:50:32 56° 75° (ENE) 23:54:39 437.305
BUGSAT 1 21 Dec 23:47:23 23:51:27 78° 284° (WNW) 23:55:32 437.445
ESTCUBE 1 21 Dec 23:50:19 23:54:13 28° 263° (W) 23:58:07 437.505/2401.250
SPROUT 21 Dec 23:53:59 23:58:12 64° 75° (ENE) 00:02:26 437.525
DUCHIFAT 1 21 Dec 23:54:50 23:58:57 50° 286° (WNW) 00:03:04 145.980
BEESAT 3 21 Dec 23:59:41 00:00:54 11° 253° (WSW) 00:02:06 437.485
BEESAT 21 Dec 23:59:53 00:01:38 12° 64° (ENE) 00:03:23 436.000
O/OREOS (USA 219) 22 Dec 00:08:00 00:11:57 32° 104° (ESE) 00:15:56 437.305
QB50P2 22 Dec 00:09:38 00:13:28 33° 288° (WNW) 00:17:18 145.880/145.840
UNISAT 6 22 Dec 00:11:51 00:15:35 24° 291° (WNW) 00:19:18 437.425
AIST 2 22 Dec 00:12:25 00:15:38 21° 250° (WSW) 00:18:49 435.215
POLYITAN 1 22 Dec 00:19:11 00:22:46 26° 290° (WNW) 00:26:20 437.675
NANOSAT C BR1 22 Dec 00:20:14 00:23:45 26° 290° (WNW) 00:27:16 145.865
CUBEBUG 1 22 Dec 00:31:48 00:32:11 10° 268° (W) 00:32:34 437.445
M-CUBED/EXP-1 PRIME 22 Dec 00:33:17 00:36:30 18° 61° (ENE) 00:39:45 437.505
QB50P1 22 Dec 00:35:27 00:38:18 18° 292° (WNW) 00:41:10 145.935-145.965
ANTELSAT 22 Dec 00:46:03 00:47:20 11° 296° (WNW) 00:48:37 437.575/2403.000
YUBILEINY 22 Dec 00:59:08 01:07:37 53° 281° (W) 01:16:06 435.215
SWISSCUBE 22 Dec 01:09:22 01:14:09 73° 75° (ENE) 01:18:56 437.505
ITUPSAT 1 22 Dec 01:10:26 01:15:12 68° 75° (ENE) 01:19:59 437.325
Oscar 19 22 Dec 01:12:51 01:16:57 23° 95° (E) 01:21:01 437.125/150
ITAMSAT 1 22 Dec 01:33:36 01:35:27 12° 92° (E) 01:37:18 435.822/435.867
BEESAT 22 Dec 01:34:07 01:38:52 66° 258° (WSW) 01:43:39 436.000
AUBIESAT-1 22 Dec 01:39:31 01:44:18 78° 72° (ENE) 01:49:13 437.475
O/OREOS (USA 219) 22 Dec 01:48:08 01:51:24 20° 299° (WNW) 01:54:40 437.305
M-CUBED/EXP-1 PRIME 22 Dec 02:06:23 02:11:02 50° 256° (WSW) 02:15:49 437.505
STARS 22 Dec 02:08:38 02:12:36 35° 72° (ENE) 02:16:36 437.465
KKS-1 22 Dec 02:14:59 02:19:22 66° 75° (ENE) 02:23:46 437.445
VERMONT LUNAR 22 Dec 02:28:35 02:32:03 55° 153° (SSE) 02:35:31 437.305
PHONESAT 2.4 22 Dec 02:49:22 02:52:54 51° 152° (SSE) 02:56:26 2401.200-2431.200
Oscar 19 22 Dec 02:51:36 02:56:18 36° 290° (WNW) 03:01:00 437.125/150
ITUPSAT 1 22 Dec 02:52:51 02:53:29 10° 269° (W) 02:54:06 437.325
AIST 1 22 Dec 02:53:25 02:55:29 13° 73° (ENE) 02:57:33
ITAMSAT 1 22 Dec 03:10:12 03:15:21 67° 286° (WNW) 03:20:28 435.822/435.867
Gurwin Techsat 1B 22 Dec 03:13:46 03:19:06 80° 103° (ESE) 03:24:23 435.225
MOZHAYETS 4 22 Dec 03:36:56 03:39:27 15° 66° (ENE) 03:41:59
HORYU 2 22 Dec 03:40:54 03:45:22 58° 101° (E) 03:49:47 437.375
STARS 22 Dec 03:46:19 03:49:09 17° 266° (W) 03:52:01 437.465
VERMONT LUNAR 22 Dec 04:07:03 04:10:26 43° 348° (NNW) 04:13:50 437.305
PHONESAT 2.4 22 Dec 04:28:08 04:31:38 45° 348° (NNW) 04:35:08 2401.200-2431.200
AIST 1 22 Dec 04:29:20 04:33:20 40° 268° (W) 04:37:17
AO-7 22 Dec 04:45:18 04:53:41 71° 105° (ESE) 05:01:59 29.400- 29.500
Gurwin Techsat 1B 22 Dec 04:56:38 04:58:19 12° 298° (WNW) 05:00:00 435.225
GONETS M04 22 Dec 04:58:39 05:06:22 36° 86° (E) 05:14:05
MOZHAYETS 4 22 Dec 05:11:44 05:16:13 49° 261° (W) 05:20:45
HORYU 2 22 Dec 05:19:45 05:21:29 12° 296° (WNW) 05:23:13 437.375
PRISM 22 Dec 05:22:05 05:25:41 28° 71° (ENE) 05:29:18 437.425
JAS-2 22 Dec 05:23:19 05:28:41 54° 100° (E) 05:33:44 435.910
VERMONT LUNAR 22 Dec 05:45:53 05:49:10 36° 6° (N) 05:52:28 437.305
STRAND 1 22 Dec 05:50:49 05:55:02 27° 68° (ENE) 05:59:14 437.568
SO-50 22 Dec 05:52:16 05:57:02 50° 57° (ENE) 06:01:48 436.795
PHONESAT 2.4 22 Dec 06:07:21 06:10:44 36° 5° (N) 06:14:07 2401.200-2431.200
Cubesat XI-IV 22 Dec 06:17:52 06:22:44 36° 98° (E) 06:27:34 437.490
CUBESAT XI-V 22 Dec 06:39:08 06:43:49 85° 258° (WSW) 06:48:30 437.345
AO-7 22 Dec 06:39:24 06:45:40 24° 302° (WNW) 06:51:56 29.400- 29.500
CUTE-I 22 Dec 06:50:19 06:55:39 75° 103° (ESE) 07:00:57 437.470
GONETS M04 22 Dec 06:54:35 07:02:53 45° 283° (WNW) 07:11:15
PRISM 22 Dec 06:58:02 07:01:11 20° 264° (W) 07:04:20 437.425
JAS-2 22 Dec 07:10:04 07:13:12 16° 298° (WNW) 07:16:14 435.910
VERMONT LUNAR 22 Dec 07:24:11 07:27:44 86° 24° (NNE) 07:31:16 437.305
STRAND 1 22 Dec 07:29:34 07:34:03 31° 263° (W) 07:38:34 437.568
SO-50 22 Dec 07:34:05 07:37:10 17° 252° (WSW) 07:40:15 436.795
PHONESAT 2.4 22 Dec 07:46:03 07:49:41 82° 21° (NNE) 07:53:19 2401.200-2431.200
Cubesat XI-IV 22 Dec 07:58:21 08:02:36 25° 293° (WNW) 08:06:51 437.490
HO-68 22 Dec 08:21:55 08:27:17 23° 95° (E) 08:32:36 435.675
SEEDS 22 Dec 08:30:35 08:32:36 13° 92° (E) 08:34:37 437.485
DOVE 4 22 Dec 08:31:04 08:32:05 11° 92° (E) 08:33:07 437.250
CUTE-I 22 Dec 08:32:52 08:35:02 13° 298° (WNW) 08:37:11 437.470
CUTE 1.7 + AOD 2 22 Dec 08:35:31 08:38:30 18° 94° (E) 08:41:27 437.475
VERMONT LUNAR 22 Dec 09:03:15 09:05:44 18° 216° (SW) 09:08:12 437.305
MaSat-1 22 Dec 09:10:46 09:12:23 17° 297° (WNW) 09:13:58 437.345
Oscar 11 22 Dec 09:18:02 09:20:52 17° 94° (E) 09:23:42 145.826/435.025
AAUSAT CUBESAT 2 22 Dec 09:19:53 09:23:50 37° 98° (E) 09:27:44 437.432
CUSAT 1 22 Dec 09:20:57 09:24:14 36° 90° (E) 09:28:30 437.405
YUBILEINY 22 Dec 09:22:02 09:22:53 10° 61° (ENE) 09:23:45 435.215
PHONESAT 2.4 22 Dec 09:25:22 09:28:05 20° 215° (SW) 09:30:48 2401.200-2431.200
UKube-1 22 Dec 09:28:02 09:30:32 15° 94° (E) 09:33:02 .
BRITE-PL 22 Dec 09:30:31 09:35:22 87° 283° (WNW) 09:40:37 437.365/2234.400
UNISAT 6 22 Dec 09:32:06 09:35:07 19° 67° (ENE) 09:38:12 437.425
RS-15 22 Dec 09:35:02 09:37:33 11° 97° (E) 09:40:04 29.354- 29.394
POLYITAN 1 22 Dec 09:35:57 09:37:36 12° 66° (ENE) 09:39:15 437.675
NANOSAT C BR1 22 Dec 09:36:34 09:38:12 12° 66° (ENE) 09:39:51 145.865
CANX-2 22 Dec 09:39:40 09:43:57 67° 284° (WNW) 09:48:13 2200.000
GOMX 1 22 Dec 09:48:08 09:53:02 80° 283° (WNW) 09:58:14 467.674
CUBEBUG 2 22 Dec 09:49:22 09:53:21 27° 96° (E) 09:57:21 437.445
QB50P1 22 Dec 09:50:00 09:52:49 18° 68° (ENE) 09:55:38 145.935-145.965
ZACube-1 22 Dec 09:52:37 09:56:01 20° 95° (E) 09:59:24 437.345
COMPASS 1 22 Dec 09:56:21 10:00:35 66° 284° (WNW) 10:04:46 437.405
DELFI C3 22 Dec 10:02:02 10:06:01 46° 99° (E) 10:09:56 145.870
VELOX 1 22 Dec 10:02:10 10:03:49 12° 92° (E) 10:05:28 145.980
ANTELSAT 22 Dec 10:02:56 10:07:02 41° 73° (ENE) 10:11:14 437.575/2403.000
SEEDS 22 Dec 10:04:33 10:08:37 43° 286° (WNW) 10:12:39 437.485
DOVE 4 22 Dec 10:05:17 10:10:08 72° 284° (WNW) 10:15:15 437.250
50 SAT 22 Dec 10:05:28 10:06:00 10° 92° (E) 10:06:32 437.505
HO-68 22 Dec 10:08:20 10:15:19 59° 290° (WNW) 10:22:16 435.675
CUTE 1.7 + AOD 2 22 Dec 10:10:37 10:14:27 32° 288° (WNW) 10:18:15 437.475
CINEMA 3 22 Dec 10:17:24 10:22:14 88° 282° (WNW) 10:27:13 145.822/145.860
POPSAT HIP 1 22 Dec 10:17:43 10:21:35 37° 73° (ENE) 10:25:28 437.405
FUNcube-1 22 Dec 10:18:05 10:22:21 39° 98° (E) 10:26:38 145.935
O/OREOS (USA 219) 22 Dec 10:20:33 10:24:47 38° 66° (ENE) 10:29:01 437.305
DANDE 22 Dec 10:21:31 10:24:48 44° 285° (WNW) 10:29:10 436.750
UWE-3 22 Dec 10:23:17 10:27:50 55° 100° (E) 10:32:25 435.000/436.395/437.385
DX 1 22 Dec 10:33:28 10:37:49 85° 284° (WNW) 10:42:10 434.975-435.025
BUGSAT 1 22 Dec 10:34:48 10:38:43 46° 74° (ENE) 10:42:36 437.445
TIGRISAT 22 Dec 10:37:00 10:41:20 80° 258° (WSW) 10:45:48 435.000
HUMSAT D 22 Dec 10:38:48 10:42:51 37° 98° (E) 10:46:52 437.325/437.525
AISAT 22 Dec 10:44:15 10:48:25 39° 99° (E) 10:52:35 437.250
DUCHIFAT 1 22 Dec 10:44:24 10:48:35 80° 76° (ENE) 10:52:47 145.980
CUBEBUG 1 22 Dec 10:45:12 10:47:18 13° 93° (E) 10:49:23 437.445
Oscar 11 22 Dec 10:53:09 10:57:07 35° 288° (WNW) 11:01:03 145.826/435.025
AAUSAT CUBESAT 2 22 Dec 10:56:37 10:59:09 16° 292° (WNW) 11:01:40 437.432
QB50P2 22 Dec 10:59:22 11:03:32 65° 259° (W) 11:07:44 145.880/145.840
JUGNU 22 Dec 11:02:03 11:04:29 13° 168° (SSE) 11:06:55 437.505
UKube-1 22 Dec 11:02:47 11:06:49 39° 288° (WNW) 11:10:50 .
CUSAT 1 22 Dec 11:06:04 11:07:51 13° 297° (WNW) 11:09:50 437.405
UNISAT 6 22 Dec 11:07:41 11:11:37 34° 263° (W) 11:15:41 437.425
POLYITAN 1 22 Dec 11:09:01 11:13:05 49° 260° (W) 11:17:11 437.675
NANOSAT C BR1 22 Dec 11:09:33 11:13:37 49° 260° (W) 11:17:42 145.865
YUBILEINY 22 Dec 11:12:45 11:21:25 68° 81° (E) 11:30:03 435.215
QB50P1 22 Dec 11:24:40 11:28:26 32° 262° (W) 11:32:13 145.935-145.965
CUBEBUG 2 22 Dec 11:26:01 11:29:54 27° 290° (WNW) 11:33:51 437.445
ZACube-1 22 Dec 11:28:18 11:32:23 33° 288° (WNW) 11:36:28 437.345
VELOX 1 22 Dec 11:36:22 11:40:39 51° 286° (WNW) 11:44:56 145.980
TISAT 1 22 Dec 11:36:51 11:38:14 11° 92° (E) 11:39:38 437.305
RS-15 22 Dec 11:36:55 11:47:47 70° 114° (ESE) 11:58:36 29.354- 29.394
50 SAT 22 Dec 11:37:26 11:41:28 52° 285° (WNW) 11:45:30 437.505
DELFI C3 22 Dec 11:39:11 11:40:49 12° 294° (WNW) 11:42:28 145.870
ANTELSAT 22 Dec 11:41:34 11:44:01 15° 268° (W) 11:46:30 437.575/2403.000
SPROUT 22 Dec 11:45:28 11:47:49 14° 93° (E) 11:50:09 437.525
ESTCUBE 1 22 Dec 11:45:33 11:50:03 77° 102° (ESE) 11:54:31 437.505/2401.250
POPSAT HIP 1 22 Dec 11:55:13 11:57:36 15° 266° (W) 11:59:59 437.405
FUNcube-1 22 Dec 11:55:20 11:58:22 18° 292° (WNW) 12:01:25 145.935
O/OREOS (USA 219) 22 Dec 12:01:01 12:03:49 16° 260° (W) 12:06:38 437.305
UWE-3 22 Dec 12:01:39 12:03:53 14° 294° (WNW) 12:06:08 435.000/436.395/437.385
SRMSAT 22 Dec 12:10:02 12:11:32 11° 166° (SSE) 12:13:02 437.500
ISS 22 Dec 12:10:34 12:13:17 23° 130° (SE) 12:15:59 145.825
BEESAT 3 22 Dec 12:11:46 12:14:51 21° 111° (ESE) 12:17:59 437.485
BUGSAT 1 22 Dec 12:13:21 12:14:25 11° 267° (W) 12:15:29 437.445
HUMSAT D 22 Dec 12:15:33 12:18:19 17° 292° (WNW) 12:21:04 437.325/437.525
CUBEBUG 1 22 Dec 12:19:44 12:23:50 43° 287° (WNW) 12:27:57 437.445
AISAT 22 Dec 12:21:55 12:24:42 17° 293° (WNW) 12:27:29 437.250
Oscar 19 22 Dec 12:26:55 12:31:04 25° 68° (ENE) 12:35:14 437.125/150
PCSat 22 Dec 12:29:07 12:32:46 19° 105° (ESE) 12:36:26 145.827
AIST 2 22 Dec 12:30:47 12:32:52 14° 108° (ESE) 12:34:58 435.215
ITAMSAT 1 22 Dec 12:48:33 12:51:21 15° 64° (ENE) 12:54:09 435.822/435.867
JUGNU 22 Dec 12:48:58 12:52:45 17° 178° (S) 12:56:33 437.505
BEESAT 2 22 Dec 12:52:21 12:56:22 57° 116° (ESE) 13:00:27 435.950
Gurwin Techsat 1B 22 Dec 12:57:11 12:57:55 10° 61° (ENE) 12:58:39 435.225
